AEOLUS (43600 NORAD) Tracking and Keplerian Element Data

This shows tracking and keplerian element data for the satellite.

Feedback or suggestion? Click here.




ElementValue
Catalog43600
NameAEOLUS
Epoch Orbit1352
Epoch Day320.25097505
Epoch Year2018
RAAN325.1983
Inclination96.7247
Eccentricity0.0005708
Argument of Perigee77.5308
Mean Anonmoly282.5886
Mean Motion15.8684457
Decay Rate-1.37E-06
L11 43600U 18066A 18320.25097505 -.00000137 00000-0 00000+0 0 9992
L22 43600 96.7247 325.1983 0005708 77.5308 282.5886 15.86844570 13529

Live tracking and technical data element details for AEOLUS (NORAD 43600). AEOLUS can be tracked NOW for your location showing map with azimuth and elevation plus other details from your city location.

Track the satellite on the map from your city or location and see movement details for azimuth, elevation, latitude, longitude, range, height, and movement on the map or in text.







IsCatalogInMostPopularTable: catalog: 43600, numindb: 28
Update: records affected: 1



GetName: 43600 AEOLUS

Hit Count: updated at: Tue, 20 Nov 2018 11:59:13 GMT